Location: Azul
(36.7830°S, 59.8500°W)
Time: 08:37:20
(UTC-03:00)

UWE-3 - Pass Details

Date: 23 October 2021
Orbit: 584 x 681 km, 97.7° (Epoch: 06 December)

Event Time Altitude Azimuth Distance (km) Brightness Sun altitude
Exits shadow 05:17:24 13° 300° (WNW) 1,807 ? -9.7°
Maximum altitude 05:19:12 16° 272° (W) 1,651 ? -9.4°
Drops below altitude 10° 05:21:52 10° 234° (SW) 2,026 ? -8.9°
Sets 05:24:57 0° 212° (SSW) 2,967 ? -8.3°
